Location: Peach Mountain Observatory
(42.3967°N, 83.9367°W)
Time: 06:23:46
(UTC-05:00)

Transit 4A - Pass Details

Date: 18 January 2020
Orbit: 872 x 973 km, 66.8° (Epoch: 26 February)

Event Time Altitude Azimuth Distance (km) Brightness Sun altitude
Rises 19:28:14 0° 306° (NW) 3,466 11.6 -21.2°
Reaches altitude 10° 19:34:01 10° 261° (W) 2,529 11.3 -22.3°
Maximum altitude 19:34:12 10° 259° (W) 2,528 11.3 -22.3°
Drops below altitude 10° 19:34:21 10° 258° (WSW) 2,529 11.3 -22.3°
Sets 19:40:11 0° 212° (SSW) 3,480 11.5 -23.4°
